Terminal Aerodrome Forecast
Issued by NWS

Home | Current Version | Previous Version | Graphics & Text | Print | Product List | Glossary On
Versions: 1 2 3 4 5 6 7 8 9 10 11 12 13 14 15 16 17 18 19 20 21 22 23 24 25 26
485
FTUS41 KCLE 102307 AAC
TAFFDY
TAF AMD
KFDY 102307Z 1023/1118 27015G25KT 2SM -SHSN OVC025
      TEMPO 1023/1101 26015KT 1/2SM SN OVC014
     FM110200 28014KT 5SM -SHSN OVC035
     FM110500 29010KT P6SM BKN035=

USA.gov is the U.S. government's official web portal to all federal, state and local government web resources and services.